Hourly Data Report for February 17, 2004

TORONTO CITY
ONTARIO

43°40'00.000" N
79°24'00.000" W
112.50 m
6158355
71508
XTO

Download Data

Hourly Data (February 2004)
Hourly Data Report for February 17, 2004
TIME
LST
Temp Definition
°C
Dew Point Definition
°C
Rel Hum Definition
%
Precip. Amount Definition
mm

Wind Dir Definition
10's deg

Wind Spd Definition
km/h
Visibility Definition
km
Stn Press Definition
kPa
Hmdx Definition


Wind Chill Definition


Weather Definition


00:00 -5.0 -9.3 72   LegendMM LegendMM LegendMM 102.07     LegendNANA
01:00 -5.3 -10.7 66   LegendMM LegendMM LegendMM 102.02     LegendNANA
02:00 -5.3 -10.1 69   LegendMM LegendMM LegendMM 101.95     LegendNANA
03:00 -4.9 -10.0 67   LegendMM LegendMM LegendMM 101.96     LegendNANA
04:00 -4.4 -9.3 69   LegendMM LegendMM LegendMM 101.89     LegendNANA
05:00 -4.5 -9.5 68   LegendMM LegendMM LegendMM 101.88     LegendNANA
06:00 -4.6 -9.2 70   LegendMM LegendMM LegendMM 101.81     LegendNANA
07:00 -4.5 -9.0 71   LegendMM LegendMM LegendMM 101.81     LegendNANA
08:00 -4.1 -9.4 67   LegendMM LegendMM LegendMM 101.81     LegendNANA
09:00 -3.1 -9.3 62   LegendMM LegendMM LegendMM 101.80     LegendNANA
10:00 -2.6 -8.8 62   LegendMM LegendMM LegendMM 101.74     LegendNANA
11:00 -2.1 -9.6 56   LegendMM LegendMM LegendMM 101.70     LegendNANA
12:00 -1.6 -7.9 62   LegendMM LegendMM LegendMM 101.67     LegendNANA
13:00 -1.6 -10.0 53   LegendMM LegendMM LegendMM 101.56     LegendNANA
14:00 -1.0 -11.2 46   LegendMM LegendMM LegendMM 101.51     LegendNANA
15:00 -1.3 -11.9 44   LegendMM LegendMM LegendMM 101.48     LegendNANA
16:00 -1.2 -12.7 41   LegendMM LegendMM LegendMM 101.48     LegendNANA
17:00 -1.3 -10.5 50   LegendMM LegendMM LegendMM 101.48     LegendNANA
18:00 -1.2 -10.9 48   LegendMM LegendMM LegendMM 101.53     LegendNANA
19:00 -1.1 -10.8 48   LegendMM LegendMM LegendMM 101.57     LegendNANA
20:00 -1.7 -12.1 45   LegendMM LegendMM LegendMM 101.57     LegendNANA
21:00 -2.1 -11.8 47   LegendMM LegendMM LegendMM 101.56     LegendNANA
22:00 -3.2 -12.5 49   LegendMM LegendMM LegendMM 101.56     LegendNANA
23:00 -4.1 -12.6 52   LegendMM LegendMM LegendMM 101.53     LegendNANA

Notes on Data Quality.

Legend

  • E = Estimated
  • M = Missing
  • NA = Not Available*
  • [empty] = Indicates an unobserved value
Date modified: